Location: Newport
(44.6370°N, 124.0520°W)
Time: 04:21:15
(UTC-07:00)

N. Korean satellite - Pass Details

Date: 07 October 2017
Orbit: 459 x 517 km, 97.2° (Epoch: 16 October)

Event Time Altitude Azimuth Distance (km) Brightness Sun altitude
Rises 19:08:20 0° 163° (SSE) 2,577 10.1 -5.0°
Reaches altitude 10° 19:10:26 10° 161° (SSE) 1,690 9.2 -5.3°
Maximum altitude 19:14:03 75° 76° (ENE) 511 6.5 -6.0°
Drops below altitude 10° 19:17:38 10° 351° (N) 1,671 9.4 -6.6°
Sets 19:19:42 0° 350° (N) 2,546 10.3 -7.0°
